Regional Weather Roundup
Issued by NWS

Home | Current Version | Previous Version | Graphics & Text | Print | Product List | Glossary Off
Versions: 1 2 3 4 5 6 7 8 9 10 11 12 13 14 15 16 17 18 19 20 21 22 23 24 25 26 27 28 29 30 31 32 33 34 35 36 37 38 39 40 41 42 43 44 45 46 47 48 49 50

000
ASUS43 KDMX 012007
RWRIA

WEATHER ROUNDUP FOR IOWA
NATIONAL WEATHER SERVICE DES MOINES IA
200 PM CST SUN FEB 01 2015

NOTE: "FAIR" INDICATES FEW OR NO CLOUDS BELOW 12,000 FEET WITH NO
SIGNIFICANT WEATHER AND/OR OBSTRUCTIONS TO VISIBILITY.

* - THESE STATIONS ARE NOT NWS STATIONS...THUS NOT UNDER NWS
QUALITY CONTROL.  THEY ALSO DO NOT REPORT WEATHER SUCH
AS PRECIPITATION OR FOG.

IAZ001>003-012>014-020>022-031>034-043>046-012100-
   NORTHWEST IOWA

CITY           SKY/WX    TMP DP  RH WIND       PRES   REMARKS
CARROLL *      SNOW      16  12  86 N29G38    30.03R VSB 1/4 WCI  -4
CHEROKEE *     LGT SNOW  14  10  85 N20G31    30.14R VSB 1   WCI  -3
DENISON *      HVY RAIN  16  12  86 N22G33    30.05R VSB 1/2 WCI  -2
LE MARS *      LGT SNOW  12   9  85 N18G28    30.20S VSB 1   WCI  -5
ORANGE CITY *  LGT SNOW  12   7  79 N21G28    30.17S WCI  -6
SHELDON *      LGT SNOW  10   7  85 N25G35    30.16R VSB 3/4 WCI -10
SIOUX CITY     LGT SNOW  13   7  77 N26G36    30.19R VSB 1   WCI  -7
SPENCER        LGT SNOW  14   8  77 N23G33    30.13R WCI  -5
STORM LAKE *   SNOW      14  10  85 N25G32    30.08S VSB 1/2 WCI  -5
$$

IAZ055>058-069>071-079>083-090>094-012100-
   SOUTHWEST IOWA

CITY           SKY/WX    TMP DP  RH WIND       PRES   REMARKS
ATLANTIC *     LGT SNOW  18  14  86 N28G37    30.00R VSB 3/4 WCI  -1
AUDUBON *      SNOW      18  12  79 N21G29    30.01R VSB 1/2 WCI   1
CLARINDA *     SNOW      21  18  86 N22G35    29.98R VSB 1/2 WCI   5
COUNCIL BLFS * LGT SNOW  18  14  86 N21G29    30.05R WCI   1
CRESTON *      SNOW      18  16  93 N29G36    29.91R VSB 1/2 WCI  -2
HARLAN  *      LGT SNOW  18  18 100 N22G32    30.07R WCI   0
LAMONI         SNOW      23  19  85 N24G32    29.84R VSB 1/2 WCI   7
RED OAK *      SNOW      18  16  93 N35G40    30.00R VSB 1/4 WCI  -3
SHENANDOAH *   LGT SNOW  19  16  86 N24G37    30.02R VSB 3/4 WCI   2
$$

IAZ047>049-059>061-072>074-084-012100-
   CENTRAL IOWA

CITY           SKY/WX    TMP DP  RH WIND       PRES   REMARKS
AMES           HAZE      18  13  80 N24G33    29.98R VSB 1/2 WCI   0
ANKENY *       SNOW      19  16  86 N17G25    29.95R VSB 1/2 WCI   4
CHARITON *     MIX PCPN  21  18  86 N26       29.86R VSB 3/4 WCI   4
DES MOINES     SNOW      20  15  81 N20G31    29.94R VSB 1/2 WCI   4
KNOXVILLE *    SNOW      19  16  86 N20G31    29.86R VSB 1/2 WCI   4
MARSHALLTOWN   SNOW      17  14  88 N25G32    29.93R VSB 1/2 WCI  -1
PELLA *        CLOUDY    22  18  86 N13G18    29.89R WCI   9
PERRY *        LGT SNOW  19  16  86 N21G28    29.99S VSB 3/4 WCI   3
$$

IAZ004>006-015-016-023>025-035-036-012100-
   NORTH CENTRAL IOWA

CITY           SKY/WX    TMP DP  RH WIND       PRES   REMARKS
ALGONA *       SNOW      14  10  85 N21G31    30.09R VSB 1/2 WCI  -4
CLARION *      SNOW      16  14  93 N29G36    30.03R VSB 1/2 WCI  -4
ESTHERVILLE    FOG       12   8  84 N26G35    30.12S VSB 3/4 WCI  -8
FORT DODGE *   CLOUDY    16  10  79 CALM      30.05R VSB 1
MASON CITY     LGT SNOW  13   9  84 N28G35    30.06R VSB 3/4 WCI  -8
FOREST CITY *  LGT SNOW  16   9  73 N18G24    30.07R WCI  -1
IOWA FALLS *   SNOW      16  12  86 N24G30    29.99R VSB 1/2 WCI  -3
$$

IAZ007>011-017>019-026>030-037>042-050>054-066-012100-
   NORTHEAST IOWA

CITY           SKY/WX    TMP DP  RH WIND       PRES   REMARKS
CEDAR RAPIDS   SNOW      19  16  88 NE28G39   29.83S VSB 1/4 WCI   1
CHARLES CITY * LGT SNOW  14  10  85 N24G31    30.02R WCI  -5
CLINTON *        N/A     21  18  86 NE25G32   29.80F VSB 1/2 WCI   4
DECORAH *      LGT SNOW  14   9  79 NE17G25   29.99S WCI  -3
DUBUQUE        FOG       16  13  88 NE24G36   29.84F VSB 1/4 WCI  -2
MONTICELLO *   SNOW      19  16  86 NE21G33   29.86F VSB 1/4 WCI   3
OELWEIN *      LGT SNOW  16  12  86 NE28G38   29.92R WCI  -4
WATERLOO       LGT SNOW  17  13  84 N20G30    29.96R FOG     WCI   1
$$

IAZ064-065-067-068-078-012100-
   EAST CENTRAL IOWA

CITY           SKY/WX    TMP DP  RH WIND       PRES   REMARKS
DAVENPORT      HVY SNOW  22  18  85 NE25G38   29.77F VSB 1/4 WCI   5
IOWA CITY      SNOW      21  17  84 NE29G37   29.83S VSB 1/2 WCI   3
MT. PLEASANT * LGT SNOW  25  23  93 N20G26    29.75R WCI  11
MUSCATINE *    SNOW      23  21  93 NE25G35   29.78R VSB 1/4 WCI   7
QUAD CITIES    HVY SNOW  24  20  84 NE23G32   29.75F VSB 1/4 WCI   9
$$

IAZ062-063-075>077-085>089-095>099-012100-
   SOUTHEAST IOWA

CITY           SKY/WX    TMP DP  RH WIND       PRES   REMARKS
BURLINGTON     SNOW      28  26  92 NE24G30   29.70S VSB 1/2 WCI  14
FAIRFIELD *    MIX PCPN  23  19  86 N24G32    29.79R VSB 1/2 WCI   7
FORT MADISON * LGT SNOW  28  27  93 N16G23    29.72R WCI  17
KEOKUK *       LGT SNOW  32  30  93 N12G17    29.69R WCI  23
OSKALOOSA *    SNOW      21  19  93 N22       29.83R VSB 1/2 WCI   5
CENTERVILLE *  MIX PCPN  25  23  93 N14       29.80R WCI  13
OTTUMWA        LGT SNOW  22  19  89 N22G28    29.81R VSB 3/4 WCI   6
WASHINGTON *   MIX PCPN  23  23 100 N22G30    29.79R VSB 3/4 WCI   8
$$

ABBREVIATIONS USED IN REMARKS
   TC - TEMPERATURES IN CELSIUS
  WCI - WIND CHILL INDEX
   HX - HEAT INDEX
  VSB - VISIBILITY
$$



USA.gov is the U.S. government's official web portal to all federal, state and local government web resources and services.